HAZ184 VHHH-RJFF

Flight info

Callsign HAZ184
Flight time N/A
Altitude 35000
Route DALOL V631 ENVAR M750 PILOX/N0465F370 M750 MOMPA Y25 GOKYO/N0462F380 Y25 ISKUP
Aircraft B738/M-SDE2E3FGHIRWXY/LB1

Departure

Time 2026-05-07 21:05
Airport Hong Kong International Airport (VHHH)

Arrival

Time N/A
Airport Fukuoka Airport (RJFF)
Time Latitude Longitude Altitude Speed Heading
2026-05-07 21:05 22.32105 113.92833 315 ft 186 kts 68°
2026-05-07 21:05 22.32368 113.93497 692 ft 185 kts 66°
2026-05-07 21:06 22.32941 113.94672 1538 ft 174 kts 57°
2026-05-07 21:06 22.33571 113.95741 2113 ft 168 kts 72°
2026-05-07 21:06 22.33674 113.97031 2441 ft 176 kts 97°
2026-05-07 21:06 22.33615 113.98360 2870 ft 180 kts 87°
2026-05-07 21:07 22.33789 113.99706 3306 ft 183 kts 79°
2026-05-07 21:07 22.34040 114.01043 3749 ft 185 kts 79°
2026-05-07 21:07 22.34281 114.02433 4161 ft 190 kts 80°
2026-05-07 21:07 22.34450 114.03843 4663 ft 189 kts 92°
2026-05-07 21:08 22.34195 114.05250 5071 ft 195 kts 112°
2026-05-07 21:08 22.33521 114.06570 5375 ft 207 kts 127°
2026-05-07 21:08 22.32515 114.07719 5706 ft 218 kts 144°
2026-05-07 21:08 22.31132 114.08469 6027 ft 229 kts 166°
2026-05-07 21:09 22.29488 114.08697 6322 ft 243 kts 180°
2026-05-07 21:09 22.27786 114.08695 6834 ft 248 kts 181°
2026-05-07 21:09 22.26030 114.08676 7419 ft 251 kts 181°
2026-05-07 21:09 22.24285 114.08667 7979 ft 255 kts 181°
2026-05-07 21:10 22.22456 114.08649 8324 ft 269 kts 182°
2026-05-07 21:10 22.20505 114.08627 8712 ft 282 kts 181°
2026-05-07 21:10 22.18548 114.08775 9235 ft 289 kts 169°
2026-05-07 21:10 22.16637 114.09576 9815 ft 295 kts 148°
2026-05-07 21:11 22.15103 114.11056 10330 ft 305 kts 130°
2026-05-07 21:11 22.13884 114.13052 10576 ft 324 kts 120°
2026-05-07 21:11 22.11753 114.17545 11215 ft 352 kts 117°
2026-05-07 21:12 22.10632 114.19974 11485 ft 366 kts 117°
2026-05-07 21:12 22.09468 114.22467 11721 ft 381 kts 117°
2026-05-07 21:12 22.08176 114.25028 11938 ft 394 kts 122°
2026-05-07 21:12 22.06444 114.27361 12204 ft 403 kts 137°
2026-05-07 21:13 22.04268 114.29306 12705 ft 406 kts 144°
2026-05-07 21:13 22.01952 114.31104 13234 ft 409 kts 146°
2026-05-07 21:13 21.99598 114.32850 13764 ft 413 kts 147°
2026-05-07 21:13 21.97211 114.34618 14269 ft 417 kts 146°
2026-05-07 21:14 21.94803 114.36427 14813 ft 421 kts 146°
2026-05-07 21:14 21.92386 114.38274 15353 ft 425 kts 145°
2026-05-07 21:14 21.89991 114.40128 15817 ft 430 kts 144°
2026-05-07 21:14 21.87680 114.42117 16328 ft 434 kts 138°
2026-05-07 21:15 21.85642 114.44561 16829 ft 439 kts 126°
2026-05-07 21:15 21.84127 114.47417 17244 ft 444 kts 113°
2026-05-07 21:15 21.83070 114.50542 17774 ft 446 kts 107°
2026-05-07 21:15 21.82169 114.53754 18182 ft 451 kts 105°
2026-05-07 21:16 21.81338 114.56995 18688 ft 453 kts 104°
2026-05-07 21:16 21.80516 114.60319 19115 ft 457 kts 104°
2026-05-07 21:16 21.79701 114.63628 19625 ft 459 kts 104°
2026-05-07 21:16 21.78869 114.66960 20081 ft 461 kts 104°
2026-05-07 21:17 21.78024 114.70304 20467 ft 466 kts 104°
2026-05-07 21:17 21.77176 114.73630 20903 ft 468 kts 104°
2026-05-07 21:17 21.76304 114.77022 21267 ft 473 kts 105°
2026-05-07 21:17 21.75462 114.80448 21752 ft 473 kts 103°
2026-05-07 21:18 21.74796 114.83921 22091 ft 477 kts 98°
2026-05-07 21:18 21.74405 114.87464 22526 ft 478 kts 93°
2026-05-07 21:18 21.74223 114.91087 22870 ft 482 kts 90°
2026-05-07 21:18 21.74170 114.94672 23384 ft 481 kts 89°
2026-05-07 21:19 21.74177 114.98269 23696 ft 486 kts 88°
2026-05-07 21:19 21.74212 115.01904 24134 ft 487 kts 88°
2026-05-07 21:19 21.74253 115.05550 24487 ft 491 kts 88°
2026-05-07 21:19 21.74288 115.09262 24910 ft 492 kts 88°
2026-05-07 21:20 21.74315 115.12917 25257 ft 495 kts 88°
2026-05-07 21:20 21.74332 115.16660 25635 ft 498 kts 88°
2026-05-07 21:20 21.74341 115.20367 25990 ft 500 kts 88°
2026-05-07 21:20 21.74344 115.24094 26301 ft 503 kts 88°
2026-05-07 21:21 21.74342 115.27900 26571 ft 507 kts 88°
2026-05-07 21:21 21.74337 115.31709 26843 ft 510 kts 88°
2026-05-07 21:21 21.74330 115.35534 27233 ft 511 kts 88°
2026-05-07 21:21 21.74321 115.39284 27931 ft 504 kts 88°
2026-05-07 21:22 21.74308 115.43026 28603 ft 498 kts 88°
2026-05-07 21:22 21.74294 115.46765 29247 ft 493 kts 88°
2026-05-07 21:22 21.74280 115.50439 29659 ft 494 kts 88°
2026-05-07 21:22 21.74267 115.54099 30057 ft 494 kts 88°
2026-05-07 21:23 21.74254 115.57809 30487 ft 493 kts 88°
2026-05-07 21:23 21.74239 115.61486 30937 ft 492 kts 88°
2026-05-07 21:23 21.74226 115.65160 31366 ft 491 kts 88°
2026-05-07 21:23 21.74212 115.68825 31713 ft 491 kts 88°
2026-05-07 21:24 21.74198 115.72501 32074 ft 491 kts 88°
2026-05-07 21:24 21.74183 115.76176 32474 ft 490 kts 88°
2026-05-07 21:24 21.74167 115.79858 32831 ft 490 kts 88°
2026-05-07 21:24 21.74150 115.83513 33225 ft 489 kts 88°
2026-05-07 21:25 21.74131 115.87146 33624 ft 488 kts 88°
2026-05-07 21:25 21.74112 115.90771 34022 ft 486 kts 88°
2026-05-07 21:25 21.74092 115.94436 34361 ft 486 kts 88°
2026-05-07 21:25 21.74071 115.98071 34709 ft 485 kts 88°
2026-05-07 21:26 21.74050 116.01710 34910 ft 487 kts 88°
2026-05-07 21:26 21.74029 116.05364 34904 ft 486 kts 88°
2026-05-07 21:26 21.73983 116.12659 34906 ft 484 kts 88°
2026-05-07 21:27 21.73935 116.19927 34906 ft 485 kts 88°
2026-05-07 21:27 21.73882 116.27198 34908 ft 484 kts 88°
2026-05-07 21:28 21.73825 116.34465 34910 ft 485 kts 88°
2026-05-07 21:28 21.73765 116.41750 34910 ft 485 kts 88°
2026-05-07 21:29 21.73702 116.48991 34911 ft 484 kts 88°
2026-05-07 21:29 21.73637 116.56248 34915 ft 484 kts 88°
2026-05-07 21:30 21.73569 116.63568 34917 ft 484 kts 88°
2026-05-07 21:30 21.73499 116.70646 34919 ft 486 kts 88°
2026-05-07 21:31 21.73748 116.77848 34919 ft 481 kts 79°
2026-05-07 21:31 21.75443 116.84811 34919 ft 477 kts 68°
2026-05-07 21:32 21.77827 116.91456 34920 ft 475 kts 65°
2026-05-07 21:32 21.80354 116.98061 34918 ft 475 kts 64°
2026-05-07 21:33 21.82836 117.04639 34917 ft 475 kts 65°
2026-05-07 21:33 21.85294 117.11307 34911 ft 476 kts 65°
2026-05-07 21:34 21.87713 117.17965 34902 ft 476 kts 65°
2026-05-07 21:34 21.90131 117.24670 34901 ft 476 kts 65°
2026-05-07 21:35 21.92525 117.31335 34902 ft 477 kts 65°
2026-05-07 21:35 21.94926 117.38028 34902 ft 477 kts 65°
2026-05-07 21:36 21.97328 117.44738 34905 ft 477 kts 65°
2026-05-07 21:36 21.99951 117.51302 34905 ft 474 kts 59°
2026-05-07 21:37 22.03206 117.57463 34902 ft 472 kts 55°
2026-05-07 21:37 22.06688 117.63480 34903 ft 471 kts 54°
2026-05-07 21:38 22.10204 117.69506 34909 ft 473 kts 54°
2026-05-07 21:38 22.13715 117.75597 34906 ft 473 kts 54°
2026-05-07 21:39 22.16220 117.79984 34905 ft 473 kts 55°
2026-05-07 21:39 22.19677 117.86074 34907 ft 474 kts 55°
2026-05-07 21:40 22.23112 117.92153 34910 ft 473 kts 55°
2026-05-07 21:40 22.26548 117.98243 34910 ft 474 kts 55°
2026-05-07 21:41 22.30025 118.04355 34910 ft 474 kts 54°
2026-05-07 21:41 22.33544 118.10388 34912 ft 474 kts 54°
2026-05-07 21:42 22.37102 118.16453 34914 ft 474 kts 54°
2026-05-07 21:42 22.40627 118.22481 34914 ft 473 kts 54°
2026-05-07 21:43 22.44115 118.28567 34914 ft 473 kts 54°
2026-05-07 21:43 22.47547 118.34640 34912 ft 475 kts 55°
2026-05-07 21:44 22.51004 118.40775 34916 ft 475 kts 55°
2026-05-07 21:44 22.54434 118.46860 34918 ft 475 kts 54°
2026-05-07 21:45 22.57904 118.53013 34917 ft 475 kts 54°
2026-05-07 21:45 22.61373 118.59116 34918 ft 476 kts 54°
2026-05-07 21:46 22.64860 118.65232 34917 ft 476 kts 54°
2026-05-07 21:46 22.68358 118.71371 34919 ft 476 kts 54°
2026-05-07 21:47 22.71859 118.77528 34920 ft 476 kts 54°
2026-05-07 21:47 22.75340 118.83663 34920 ft 475 kts 55°
2026-05-07 21:48 22.78658 118.89518 34920 ft 476 kts 55°
2026-05-07 21:48 22.82145 118.95676 34920 ft 476 kts 55°
2026-05-07 21:49 22.85569 119.01736 34925 ft 476 kts 54°
2026-05-07 21:49 22.89046 119.07892 34923 ft 475 kts 55°
2026-05-07 21:50 22.92484 119.13988 34924 ft 475 kts 54°
2026-05-07 21:50 22.95965 119.20166 34926 ft 476 kts 54°
2026-05-07 21:51 22.99440 119.26342 34927 ft 477 kts 54°
2026-05-07 21:51 23.02886 119.32475 34925 ft 476 kts 54°
2026-05-07 21:52 23.06342 119.38632 34925 ft 476 kts 54°
2026-05-07 21:52 23.09792 119.44787 34925 ft 477 kts 54°
2026-05-07 21:53 23.13266 119.50990 34926 ft 478 kts 54°
2026-05-07 21:53 23.16729 119.57184 34925 ft 477 kts 54°
2026-05-07 21:54 23.19566 119.62262 34928 ft 477 kts 54°
2026-05-07 21:54 23.22518 119.67548 34931 ft 477 kts 54°
2026-05-07 21:55 23.25833 119.73488 34930 ft 479 kts 54°
2026-05-07 21:55 23.28949 119.79077 34930 ft 477 kts 54°
2026-05-07 21:56 23.32384 119.85246 34929 ft 478 kts 54°
2026-05-07 21:56 23.35929 119.91367 34928 ft 476 kts 50°
2026-05-07 21:57 23.40222 119.96817 34933 ft 469 kts 40°
2026-05-07 21:57 23.44990 120.01730 34932 ft 468 kts 37°
2026-05-07 21:58 23.49811 120.06504 34932 ft 468 kts 37°
2026-05-07 21:58 23.54646 120.11348 34939 ft 468 kts 38°
2026-05-07 21:59 23.59398 120.16186 34936 ft 468 kts 38°
2026-05-07 21:59 23.64185 120.21106 34945 ft 469 kts 38°
2026-05-07 22:00 23.68926 120.26002 34947 ft 469 kts 38°
2026-05-07 22:00 23.73684 120.30929 34952 ft 469 kts 38°
2026-05-07 22:01 23.78429 120.35846 34965 ft 470 kts 38°
2026-05-07 22:01 23.83177 120.40774 34979 ft 470 kts 38°
2026-05-07 22:02 23.87964 120.45747 34972 ft 470 kts 38°
2026-05-07 22:02 23.92709 120.50687 34972 ft 471 kts 38°
2026-05-07 22:03 23.97476 120.55701 34997 ft 471 kts 39°
2026-05-07 22:03 24.02219 120.60716 34993 ft 473 kts 39°
2026-05-07 22:04 24.06954 120.65730 35002 ft 470 kts 39°
2026-05-07 22:04 24.11717 120.70773 35009 ft 471 kts 39°
2026-05-07 22:05 24.16475 120.75812 35010 ft 471 kts 39°
2026-05-07 22:05 24.20580 120.80162 35033 ft 471 kts 39°
2026-05-07 22:06 24.25007 120.84858 35061 ft 471 kts 39°
2026-05-07 22:06 24.27807 120.87831 35089 ft 471 kts 39°